Flag for Germany Weather past 2 weeks in Gummersbach, North Rhine-Westphalia, Germany

Now
36 °F

Clear.


Feels Like: 27 °F
Forecast: 18 / 25 °F
Wind: 12 mph from Southeast

Location: Koeln / Bonn

Current Time: Dec 27, 2014 at 1:22:39 AM

Latest Report: Dec 27, 2014 at 12:50 AM


Visibility: 10 mi

Pressure: 30.04 "Hg

Humidity: 87%

Dew point: 32 °F

Location of GummersbachLocation

Historic Weather in Gummersbach — Graph

°F

Gummersbach temperature yesterday

Maximum temperature yesterday: 39 °F (at 12:20 PM)
Minimum temperature yesterday: 34 °F (at 12:50 AM)
Average temperature yesterday: 37 °F

Past Weeks' High & Low Weather Summary

 TemperatureHumidityPressure
High55 °F (Dec 18, 5:20 PM)100% (Dec 13, 4:50 PM)30.42 "Hg (Dec 13, 4:50 PM)
Low30 °F (Dec 14, 10:50 PM)66% (Dec 24, 1:20 AM)29.45 "Hg (Dec 12, 5:20 PM)
Average44 °F85%30.02 "Hg
* Reported Dec 12 12:20 AM — Dec 27 12:20 AM, Gummersbach, Weather by CustomWeather, © 2014

Note: Actual official high and low records may vary slightly from our data, if they occured in-between our weather recording intervals... More about our weather records

Advertising

Gummersbach weather history for previous 24 hours

 ConditionsComfort  
Time TempWeatherWind HumidityBarometerVisibility
12:20 AM
Dec 27
36 °FClear.10 mph87%30.07 "Hg10 mi
11:50 PM
Dec 26
36 °FClear.9 mph87%30.09 "Hg10 mi
11:20 PM36 °FClear.8 mph87%30.12 "Hg10 mi
10:20 PM34 °FClear.7 mph93%30.15 "Hg10 mi
9:50 PM34 °FPartly cloudy.8 mph93%30.18 "HgN/A
9:20 PM36 °FClear.9 mph93%30.21 "Hg10 mi
8:50 PM36 °FPassing clouds.7 mph93%30.24 "HgN/A
8:20 PM36 °FPassing clouds.7 mph93%30.24 "HgN/A
7:50 PM36 °FPartly cloudy.7 mph93%30.27 "HgN/A
7:20 PM36 °FPartly cloudy.6 mph93%30.27 "HgN/A
6:50 PM36 °FPassing clouds.6 mph100%30.27 "HgN/A
6:20 PM37 °FSnow flurries. Passing clouds.6 mph93%30.30 "HgN/A
5:20 PM36 °FPassing clouds.6 mph100%30.33 "HgN/A
4:20 PM37 °FMore clouds than sun.5 mph93%30.33 "HgN/A
3:50 PM37 °FMore clouds than sun.3 mph93%30.33 "HgN/A
3:20 PM39 °FBroken clouds.3 mph87%30.33 "HgN/A
2:50 PM39 °FBroken clouds.2 mph87%30.36 "HgN/A
2:20 PM39 °FPartly sunny.2 mph87%30.36 "HgN/A
1:50 PM39 °FBroken clouds.6 mph87%30.36 "HgN/A
1:20 PM39 °FPartly sunny.1 mph87%30.36 "HgN/A
12:50 PM39 °FPartly sunny.5 mph87%30.39 "HgN/A
12:20 PM39 °FPartly sunny.6 mph87%30.39 "HgN/A
11:50 AM37 °FSprinkles. Partly sunny.5 mph93%30.39 "HgN/A
11:20 AM37 °FScattered showers. Broken clouds.6 mph93%30.42 "HgN/A
10:50 AM37 °FSprinkles. Partly sunny.6 mph93%30.42 "Hg5 mi
10:20 AM37 °FScattered showers. Partly sunny.6 mph93%30.42 "HgN/A
9:50 AM37 °FBroken clouds.7 mph93%30.42 "HgN/A
9:20 AM37 °FPartly sunny.3 mph93%30.39 "HgN/A
8:50 AM37 °FPartly sunny.2 mph93%30.39 "HgN/A
8:20 AM37 °FPassing clouds.7 mph93%30.39 "HgN/A
7:50 AM37 °FScattered showers. Passing clouds.6 mph93%30.39 "HgN/A
7:20 AM37 °FScattered showers. Passing clouds.6 mph93%30.39 "HgN/A
6:50 AM37 °FScattered showers. Passing clouds.6 mph93%30.39 "HgN/A
6:20 AM37 °FPassing clouds.6 mph93%30.39 "HgN/A
5:50 AM37 °FLight rain. Passing clouds.6 mph93%30.39 "HgN/A
5:20 AM37 °FLight rain. Passing clouds.6 mph93%30.39 "HgN/A
4:50 AM36 °FPassing clouds.6 mph100%30.39 "HgN/A
4:20 AM36 °FPassing clouds.2 mph100%30.39 "HgN/A
3:20 AM36 °FLow clouds.1 mph100%30.39 "HgN/A
2:50 AM36 °FPassing clouds.1 mph100%30.39 "HgN/A
2:20 AM34 °FPassing clouds.1 mph100%30.39 "HgN/A
1:50 AM34 °FPartly cloudy.No wind100%30.36 "HgN/A
1:20 AM34 °FFog.1 mph93%30.36 "HgN/A
Weather by CustomWeather, © 2014

See weather overviewHow to use our weather pages